Location: East Guldeford
(50.9500°N, 0.7500°E)
Time: 18:39:44
(UTC+00:00)

SPOT 5 - Pass Details

Date: 12 May 2021
Orbit: 623 x 814 km, 98.2° (Epoch: 16 June)

Event Time Altitude Azimuth Distance (km) Brightness Sun altitude
Exits shadow 22:26:48 15° 212° (SSW) 1,985 4.8 -18.1°
Maximum altitude 22:30:17 31° 267° (W) 1,373 4.4 -18.3°
Drops below altitude 10° 22:34:58 10° 328° (NNW) 2,398 6.8 -18.6°
Sets 22:37:37 0° 339° (NNW) 3,346 8.0 -18.7°
